contact: severine.martini@mio.osupytheas.fr, dominique.lefevre@mio.osupytheas.fr
Project:EMSO Ligure-ouest http://www.emso-fr.org/EMSO-France
Sensor Aquadopp, Serial 05974 
DOI : "https://doi.org/10.17882/97948" 
Title:EMSO Western Ligurian : Data Bathybot Aquadopp sensor - deploiement 2023-04-28
Datetime,Profondeur,Latitude,Longitude,X_East,Y_North,Z_up,Amplitude_X,Amplitude_Y,Amplitude_Z,Batterie,Sound_Speed,Heading,Pitch,Roll,Pressure,Temperature,Fluorescence,Speed,Direction
time,m,degree_north,degree_east,m.s-1,m.s-1,m.s-1,1,1,1,Volt,m.s-1,degree,degree,degree,dbar,degree_C,arbitrary units (a.u.),m.s-1,degree
2024-01-29T00:03:13,2420,42.8014,5.9826,1.164,0.045,3.206,155.0,151.0,152.0,11.8,1504.7,271.4,-0.8,0.9,2485.33,13.28,797.0,1.165,87.8
2024-01-29T00:06:13,2420,42.8014,5.9826,0.925,-0.23,2.989,155.0,151.0,152.0,11.8,1504.7,271.4,-0.8,0.9,2485.476,13.28,785.0,0.953,104.0
2024-01-29T00:09:13,2420,42.8014,5.9826,1.161,0.02,3.176,155.0,151.0,152.0,11.8,1504.7,271.3,-0.8,0.9,2485.532,13.28,791.0,1.161,89.0
2024-01-29T00:12:13,2420,42.8014,5.9826,1.144,0.009,3.155,155.0,151.0,152.0,11.8,1504.7,271.4,-0.8,0.9,2485.597,13.28,781.0,1.144,89.6
2024-01-29T00:15:13,2420,42.8014,5.9826,1.139,0.022,3.202,155.0,151.0,152.0,11.8,1504.7,271.3,-0.9,0.9,2485.599,13.28,772.0,1.139,88.9
2024-01-29T00:18:13,2420,42.8014,5.9826,1.166,0.03,3.172,155.0,152.0,152.0,11.8,1504.7,271.4,-0.8,0.9,2485.46,13.28,781.0,1.166,88.5
2024-01-29T00:21:13,2420,42.8014,5.9826,0.9,0.274,3.026,155.0,152.0,152.0,11.8,1504.7,271.3,-0.8,0.9,2485.428,13.28,790.0,0.941,73.1
2024-01-29T00:24:13,2420,42.8014,5.9826,0.949,0.241,2.959,155.0,151.0,152.0,11.8,1504.7,271.4,-0.8,0.9,2485.374,13.28,781.0,0.979,75.8
2024-01-29T00:27:13,2420,42.8014,5.9826,1.019,0.024,3.297,155.0,152.0,152.0,11.8,1504.7,271.4,-0.9,0.9,2485.597,13.28,780.0,1.019,88.7
2024-01-29T00:30:13,2420,42.8014,5.9826,1.013,0.013,3.281,155.0,152.0,152.0,11.7,1504.7,271.3,-0.8,0.9,2485.536,13.28,776.0,1.013,89.3
2024-01-29T00:33:13,2420,42.8014,5.9826,1.053,0.036,3.279,155.0,151.0,152.0,11.8,1504.7,271.3,-0.8,0.9,2485.661,13.28,793.0,1.053,88.0
2024-01-29T00:36:13,2420,42.8014,5.9826,1.08,0.04,3.236,155.0,151.0,152.0,11.8,1504.7,271.4,-0.9,0.9,2485.386,13.28,782.0,1.081,87.9
2024-01-29T00:39:13,2420,42.8014,5.9826,1.038,0.048,3.29,155.0,152.0,152.0,11.8,1504.7,271.3,-0.8,0.9,2485.492,13.28,788.0,1.039,87.4
2024-01-29T00:42:13,2420,42.8014,5.9826,1.197,0.014,3.106,155.0,151.0,152.0,11.8,1504.7,271.4,-0.8,0.9,2485.277,13.28,780.0,1.197,89.3
2024-01-29T00:45:13,2420,42.8014,5.9826,0.835,-0.217,3.048,155.0,152.0,152.0,11.8,1504.7,271.4,-0.8,0.8,2485.263,13.28,775.0,0.863,104.6
2024-01-29T00:48:13,2420,42.8014,5.9826,1.159,0.017,3.131,155.0,151.0,152.0,11.8,1504.7,271.5,-0.8,0.9,2485.904,13.28,777.0,1.159,89.2
2024-01-29T00:51:13,2420,42.8014,5.9826,1.032,0.032,3.301,155.0,152.0,152.0,11.8,1504.7,271.4,-0.8,0.8,2485.169,13.28,782.0,1.032,88.2
2024-01-29T00:54:12,2420,42.8014,5.9826,1.047,0.032,3.256,155.0,152.0,152.0,11.8,1504.7,271.3,-0.8,0.9,2485.205,13.28,787.0,1.047,88.3
2024-01-29T00:57:13,2420,42.8014,5.9826,1.046,0.022,3.286,155.0,152.0,152.0,11.8,1504.7,271.5,-0.8,0.9,2485.416,13.28,775.0,1.046,88.8
2024-01-29T01:03:12,2420,42.8014,5.9826,1.137,-0.004,3.206,155.0,152.0,152.0,11.8,1504.7,271.4,-0.8,0.8,2485.247,13.28,786.0,1.137,90.2
2024-01-29T01:06:13,2420,42.8014,5.9826,1.081,0.023,3.245,155.0,151.0,152.0,11.8,1504.7,271.5,-0.8,0.9,2485.227,13.28,787.0,1.081,88.8
2024-01-29T01:09:13,2420,42.8014,5.9826,1.125,0.041,3.207,155.0,152.0,152.0,11.8,1504.7,271.3,-0.8,0.9,2485.177,13.28,788.0,1.126,87.9
2024-01-29T01:12:13,2420,42.8014,5.9826,1.074,0.021,3.226,155.0,152.0,152.0,11.8,1504.7,271.3,-0.8,0.9,2485.715,13.28,794.0,1.074,88.9
2024-01-29T01:15:13,2420,42.8014,5.9826,1.123,0.007,3.172,155.0,152.0,152.0,11.8,1504.7,271.3,-0.8,0.9,2485.526,13.28,790.0,1.123,89.6
2024-01-29T01:18:13,2420,42.8014,5.9826,0.898,-0.241,2.952,155.0,151.0,152.0,11.8,1504.7,271.4,-0.8,0.9,2485.579,13.28,779.0,0.93,105.0
2024-01-29T01:21:13,2420,42.8014,5.9826,1.022,0.272,2.841,155.0,152.0,152.0,11.8,1504.7,271.4,-0.8,0.9,2485.701,13.28,791.0,1.057,75.1
2024-01-29T01:24:13,2420,42.8014,5.9826,0.941,0.263,2.922,155.0,152.0,152.0,11.8,1504.7,271.3,-0.8,0.9,2485.326,13.28,785.0,0.977,74.4
2024-01-29T01:27:13,2420,42.8014,5.9826,1.078,0.038,3.209,155.0,152.0,152.0,11.8,1504.7,271.4,-0.8,0.9,2485.197,13.28,788.0,1.079,88.0
2024-01-29T01:30:13,2420,42.8014,5.9826,1.072,0.027,3.26,155.0,151.0,152.0,11.8,1504.7,271.6,-0.8,0.9,2485.627,13.28,789.0,1.072,88.6
2024-01-29T01:33:13,2420,42.8014,5.9826,0.908,0.04,3.413,155.0,152.0,152.0,11.8,1504.7,271.3,-0.8,0.9,2485.372,13.28,789.0,0.909,87.5
2024-01-29T01:36:13,2420,42.8014,5.9826,0.989,-0.211,2.835,155.0,152.0,152.0,11.8,1504.7,271.3,-0.8,0.9,2485.5,13.28,787.0,1.011,102.0
2024-01-29T01:39:13,2420,42.8014,5.9826,0.939,0.279,2.934,155.0,152.0,152.0,11.8,1504.7,271.3,-0.9,0.9,2485.482,13.28,779.0,0.98,73.5
2024-01-29T01:42:13,2420,42.8014,5.9826,1.016,0.033,3.263,155.0,152.0,152.0,11.7,1504.7,271.3,-0.9,0.9,2485.309,13.28,778.0,1.017,88.1
2024-01-29T01:45:13,2420,42.8014,5.9826,1.178,0.02,3.168,155.0,152.0,152.0,11.8,1504.7,271.4,-0.8,0.9,2485.223,13.28,780.0,1.178,89.0
2024-01-29T01:48:13,2420,42.8014,5.9826,0.954,0.25,2.938,155.0,152.0,152.0,11.8,1504.7,271.4,-0.8,0.9,2485.448,13.28,774.0,0.986,75.3
2024-01-29T01:51:13,2420,42.8014,5.9826,1.111,0.025,3.169,155.0,151.0,152.0,11.8,1504.7,271.4,-0.8,0.9,2485.314,13.28,790.0,1.111,88.7
2024-01-29T01:54:13,2420,42.8014,5.9826,1.126,0.037,3.174,155.0,152.0,152.0,11.8,1504.7,271.3,-0.9,0.9,2485.189,13.28,777.0,1.126,88.1
2024-01-29T01:57:13,2420,42.8014,5.9826,0.84,0.265,3.024,155.0,152.0,152.0,11.8,1504.7,271.5,-0.8,0.9,2484.964,13.28,788.0,0.881,72.5
2024-01-29T02:03:13,2420,42.8014,5.9826,1.023,-0.221,2.852,155.0,152.0,152.0,11.7,1504.7,271.5,-0.8,0.9,2485.593,13.28,782.0,1.046,102.2
2024-01-29T02:06:13,2420,42.8014,5.9826,0.949,0.268,2.923,155.0,152.0,152.0,11.8,1504.7,271.4,-0.8,0.9,2485.524,13.28,777.0,0.986,74.2
2024-01-29T02:09:13,2420,42.8014,5.9826,1.144,0.006,3.174,155.0,151.0,152.0,11.8,1504.7,271.4,-0.9,0.9,2485.028,13.28,793.0,1.144,89.7
2024-01-29T02:12:13,2420,42.8014,5.9826,1.085,0.028,3.176,155.0,152.0,152.0,11.8,1504.7,271.4,-0.8,0.9,2485.508,13.28,792.0,1.085,88.5
2024-01-29T02:15:13,2420,42.8014,5.9826,1.126,0.027,3.165,155.0,151.0,152.0,11.8,1504.7,271.3,-0.8,0.8,2485.552,13.28,786.0,1.126,88.6
2024-01-29T02:18:13,2420,42.8014,5.9826,1.14,0.035,3.196,155.0,151.0,152.0,11.7,1504.7,271.3,-0.9,0.9,2485.536,13.28,787.0,1.14,88.2
2024-01-29T02:21:12,2420,42.8014,5.9826,1.193,0.022,3.115,155.0,151.0,152.0,11.8,1504.7,271.5,-0.8,0.9,2485.378,13.28,793.0,1.193,88.9
2024-01-29T02:24:13,2420,42.8014,5.9826,1.084,0.045,3.242,155.0,151.0,152.0,11.8,1504.7,271.4,-0.8,0.9,2485.448,13.28,787.0,1.085,87.6
2024-01-29T02:27:13,2420,42.8014,5.9826,0.895,-0.232,2.926,155.0,151.0,152.0,11.8,1504.7,271.5,-0.8,0.9,2485.151,13.28,773.0,0.925,104.5
2024-01-29T02:30:12,2420,42.8014,5.9826,0.988,0.029,3.329,155.0,151.0,152.0,11.8,1504.7,271.3,-0.8,0.9,2485.183,13.28,783.0,0.988,88.3
2024-01-29T02:33:13,2420,42.8014,5.9826,1.101,0.026,3.18,155.0,151.0,152.0,11.8,1504.7,271.5,-0.8,0.9,2485.48,13.28,787.0,1.101,88.6
2024-01-29T02:36:13,2420,42.8014,5.9826,1.079,0.015,3.264,155.0,152.0,152.0,11.8,1504.7,271.3,-0.8,0.9,2485.651,13.28,776.0,1.079,89.2
2024-01-29T02:39:13,2420,42.8014,5.9826,1.075,0.006,3.233,155.0,152.0,152.0,11.7,1504.7,271.4,-0.8,0.9,2485.751,13.28,789.0,1.075,89.7
2024-01-29T02:42:13,2420,42.8014,5.9826,1.083,0.021,3.19,155.0,152.0,152.0,11.8,1504.7,271.3,-0.8,0.9,2485.223,13.28,781.0,1.083,88.9
2024-01-29T02:45:13,2420,42.8014,5.9826,1.029,0.271,2.899,155.0,151.0,152.0,11.8,1504.7,271.3,-0.8,0.9,2485.432,13.28,786.0,1.064,75.3
2024-01-29T02:48:13,2420,42.8014,5.9826,1.122,0.025,3.268,155.0,151.0,152.0,11.8,1504.7,271.4,-0.8,0.9,2484.958,13.28,800.0,1.122,88.7
2024-01-29T02:51:13,2420,42.8014,5.9826,1.106,0.047,3.214,155.0,152.0,152.0,11.8,1504.7,271.4,-0.8,0.9,2485.197,13.28,796.0,1.107,87.6
2024-01-29T02:54:12,2420,42.8014,5.9826,0.913,-0.227,2.95,155.0,152.0,152.0,11.8,1504.7,271.5,-0.8,0.8,2485.641,13.28,787.0,0.941,104.0
2024-01-29T02:57:13,2420,42.8014,5.9826,1.126,0.016,3.217,155.0,151.0,152.0,11.8,1504.7,271.4,-0.8,0.9,2485.538,13.28,774.0,1.126,89.2
2024-01-29T03:03:13,2420,42.8014,5.9826,1.191,0.046,3.141,155.0,151.0,152.0,11.8,1504.7,271.0,-0.8,0.9,2485.669,13.28,783.0,1.192,87.8
2024-01-29T03:06:13,2420,42.8014,5.9826,1.073,-0.22,2.827,155.0,151.0,152.0,11.8,1504.7,271.2,-0.8,0.9,2485.231,13.28,791.0,1.095,101.6
2024-01-29T03:09:13,2420,42.8014,5.9826,0.686,0.035,3.488,156.0,152.0,152.0,11.7,1504.7,271.4,-0.8,0.9,2485.193,13.28,780.0,0.687,87.1
2024-01-29T03:12:13,2420,42.8014,5.9826,0.073,0.153,3.96,155.0,152.0,153.0,11.7,1504.7,271.0,-0.8,0.9,2485.099,13.28,790.0,0.169,25.5
2024-01-29T03:15:13,2420,42.8014,5.9826,0.178,0.056,3.961,155.0,152.0,153.0,11.7,1504.7,271.8,-0.9,0.9,2485.273,13.28,797.0,0.186,72.5
2024-01-29T03:18:13,2420,42.8014,5.9826,0.843,0.036,2.631,155.0,151.0,152.0,11.8,1504.7,271.4,-0.8,0.9,2485.034,13.28,797.0,0.844,87.6
2024-01-29T03:21:13,2420,42.8014,5.9826,0.578,-0.214,2.493,155.0,152.0,152.0,11.8,1504.7,271.4,-0.8,0.9,2485.107,13.28,789.0,0.616,110.3
2024-01-29T03:24:13,2420,42.8014,5.9826,0.93,0.012,3.407,155.0,151.0,152.0,11.8,1504.7,271.4,-0.8,0.9,2485.38,13.28,795.0,0.93,89.3
2024-01-29T03:27:13,2420,42.8014,5.9826,1.047,0.052,3.33,155.0,151.0,152.0,11.8,1504.7,271.5,-0.8,0.9,2484.902,13.28,776.0,1.048,87.2
2024-01-29T03:30:13,2420,42.8014,5.9826,0.954,0.034,3.424,155.0,151.0,152.0,11.8,1504.7,271.5,-0.8,0.9,2485.458,13.28,785.0,0.955,88.0
2024-01-29T03:33:13,2420,42.8014,5.9826,1.113,0.02,3.195,155.0,152.0,152.0,11.8,1504.7,271.4,-0.8,0.9,2485.432,13.28,769.0,1.113,89.0
2024-01-29T03:36:13,2420,42.8014,5.9826,0.689,-0.217,3.195,155.0,152.0,152.0,11.8,1504.7,271.4,-0.8,0.9,2485.566,13.28,783.0,0.722,107.5
2024-01-29T03:39:13,2420,42.8014,5.9826,0.836,-0.209,3.077,155.0,152.0,152.0,11.8,1504.7,271.4,-0.8,0.9,2485.406,13.28,804.0,0.862,104.0
2024-01-29T03:42:13,2420,42.8014,5.9826,0.565,0.052,2.888,155.0,151.0,152.0,11.8,1504.7,271.4,-0.8,0.9,2485.163,13.28,788.0,0.567,84.7
2024-01-29T03:45:13,2420,42.8014,5.9826,0.897,-0.214,3.048,155.0,152.0,152.0,11.8,1504.7,271.3,-0.8,0.9,2485.482,13.28,786.0,0.922,103.4
2024-01-29T03:48:13,2420,42.8014,5.9826,0.972,0.002,3.378,155.0,151.0,152.0,11.8,1504.7,271.4,-0.8,0.9,2485.428,13.28,786.0,0.972,89.9
2024-01-29T03:51:13,2420,42.8014,5.9826,0.748,0.011,2.757,155.0,151.0,152.0,11.8,1504.7,271.6,-0.8,0.9,2485.326,13.28,783.0,0.748,89.2
2024-01-29T03:54:13,2420,42.8014,5.9826,0.941,-0.225,2.983,155.0,152.0,152.0,11.8,1504.7,271.3,-0.8,0.9,2485.37,13.28,779.0,0.968,103.4
2024-01-29T03:57:13,2420,42.8014,5.9826,0.785,0.28,3.118,155.0,152.0,152.0,11.8,1504.7,271.3,-0.9,0.9,2485.693,13.28,797.0,0.833,70.4
2024-01-29T04:03:13,2420,42.8014,5.9826,0.742,0.481,2.723,155.0,151.0,152.0,11.8,1504.7,271.6,-0.8,0.9,2485.647,13.28,795.0,0.884,57.0
2024-01-29T04:06:13,2420,42.8014,5.9826,0.866,-0.231,3.027,155.0,152.0,152.0,11.8,1504.7,271.4,-0.8,0.9,2485.32,13.28,785.0,0.896,104.9
2024-01-29T04:09:13,2420,42.8014,5.9826,1.082,0.03,3.23,155.0,151.0,152.0,11.7,1504.7,271.3,-0.8,0.9,2485.538,13.28,774.0,1.082,88.4
2024-01-29T04:12:13,2420,42.8014,5.9826,1.061,0.015,2.406,155.0,151.0,152.0,11.8,1504.7,271.3,-0.8,0.9,2485.059,13.28,790.0,1.061,89.2
2024-01-29T04:15:13,2420,42.8014,5.9826,0.922,0.267,2.975,155.0,152.0,152.0,11.8,1504.7,271.4,-0.8,0.9,2485.414,13.28,774.0,0.96,73.9
2024-01-29T04:18:13,2420,42.8014,5.9826,0.783,0.278,3.14,155.0,151.0,152.0,11.8,1504.7,271.5,-0.8,0.9,2485.663,13.28,789.0,0.831,70.5
2024-01-29T04:21:12,2420,42.8014,5.9826,0.652,0.024,2.868,155.0,152.0,152.0,11.7,1504.7,271.3,-0.9,0.8,2485.073,13.28,774.0,0.652,87.9
2024-01-29T04:24:13,2420,42.8014,5.9826,0.961,0.029,3.404,155.0,152.0,152.0,11.8,1504.7,271.4,-0.8,0.9,2485.408,13.28,781.0,0.961,88.3
2024-01-29T04:27:13,2420,42.8014,5.9826,1.014,0.028,3.317,155.0,151.0,152.0,11.8,1504.7,271.4,-0.8,0.9,2485.504,13.28,779.0,1.014,88.4
2024-01-29T04:30:13,2420,42.8014,5.9826,0.901,0.013,2.576,155.0,151.0,152.0,11.8,1504.7,271.6,-0.8,0.9,2485.167,13.28,833.0,0.901,89.2
2024-01-29T04:33:13,2420,42.8014,5.9826,1.063,0.021,3.298,155.0,151.0,152.0,11.8,1504.7,271.3,-0.9,0.9,2485.257,13.28,779.0,1.063,88.9
2024-01-29T04:36:13,2420,42.8014,5.9826,0.853,-0.239,3.069,155.0,151.0,152.0,11.8,1504.7,271.4,-0.8,0.9,2485.133,13.28,805.0,0.886,105.7
2024-01-29T04:39:13,2420,42.8014,5.9826,0.958,0.252,3.026,155.0,151.0,152.0,11.8,1504.7,271.3,-0.8,0.9,2485.253,13.28,776.0,0.991,75.3
2024-01-29T04:42:13,2420,42.8014,5.9826,0.63,0.279,2.41,155.0,152.0,152.0,11.8,1504.7,271.3,-0.8,0.9,2485.181,13.28,779.0,0.689,66.1
2024-01-29T04:45:13,2420,42.8014,5.9826,0.901,0.032,3.447,155.0,152.0,152.0,11.8,1504.7,271.4,-0.8,0.9,2485.169,13.28,777.0,0.902,88.0
2024-01-29T04:48:13,2420,42.8014,5.9826,0.782,0.025,2.655,155.0,152.0,152.0,11.8,1504.7,271.4,-0.9,0.9,2485.665,13.28,788.0,0.782,88.2
2024-01-29T04:51:13,2420,42.8014,5.9826,1.01,0.017,3.316,155.0,151.0,152.0,11.8,1504.7,271.4,-0.8,0.9,2485.542,13.28,787.0,1.01,89.0
2024-01-29T04:54:13,2420,42.8014,5.9826,1.143,-0.245,2.784,155.0,152.0,152.0,11.8,1504.7,271.5,-0.8,0.9,2485.416,13.28,773.0,1.169,102.1
2024-01-29T04:57:13,2420,42.8014,5.9826,1.019,0.014,3.358,155.0,151.0,152.0,11.8,1504.7,271.5,-0.8,0.9,2485.364,13.28,786.0,1.019,89.2
2024-01-29T05:03:13,2420,42.8014,5.9826,0.671,0.513,2.815,155.0,151.0,152.0,11.8,1504.7,271.3,-0.8,0.9,2485.637,13.28,781.0,0.845,52.6
2024-01-29T05:06:13,2420,42.8014,5.9826,0.991,0.021,3.443,155.0,151.0,152.0,11.8,1504.7,271.6,-0.8,0.9,2485.303,13.28,4708.0,0.991,88.8
2024-01-29T05:09:13,2420,42.8014,5.9826,0.88,0.514,2.558,155.0,151.0,152.0,11.7,1504.7,271.4,-0.8,0.9,2485.492,13.28,847.0,1.019,59.7
2024-01-29T05:12:13,2420,42.8014,5.9826,0.936,0.049,3.401,155.0,151.0,152.0,11.8,1504.7,271.5,-0.8,0.9,2485.233,13.28,768.0,0.937,87.0
2024-01-29T05:15:13,2420,42.8014,5.9826,0.968,0.036,3.377,155.0,151.0,152.0,11.7,1504.7,271.5,-0.8,0.9,2485.524,13.28,780.0,0.969,87.9
2024-01-29T05:18:13,2420,42.8014,5.9826,1.043,0.018,3.348,155.0,151.0,152.0,11.8,1504.7,271.5,-0.8,0.9,2485.611,13.28,773.0,1.043,89.0
2024-01-29T05:21:13,2420,42.8014,5.9826,0.91,-0.217,3.032,155.0,151.0,152.0,11.8,1504.7,271.4,-0.8,0.9,2485.599,13.28,772.0,0.936,103.4
2024-01-29T05:24:13,2420,42.8014,5.9826,1.056,0.032,3.289,155.0,151.0,152.0,11.8,1504.7,271.4,-0.8,0.9,2485.579,13.28,778.0,1.056,88.3
2024-01-29T05:27:13,2420,42.8014,5.9826,0.922,0.26,3.027,155.0,151.0,152.0,11.8,1504.7,271.4,-0.8,0.9,2485.251,13.28,790.0,0.958,74.3
2024-01-29T05:30:13,2420,42.8014,5.9826,0.897,0.27,3.035,155.0,152.0,152.0,11.8,1504.7,271.4,-0.8,0.9,2485.673,13.28,787.0,0.937,73.3
2024-01-29T05:33:13,2420,42.8014,5.9826,0.952,0.265,2.984,155.0,151.0,152.0,11.8,1504.7,271.5,-0.8,0.9,2485.621,13.28,797.0,0.988,74.4
2024-01-29T05:36:13,2420,42.8014,5.9826,0.751,-0.454,2.694,155.0,151.0,152.0,11.7,1504.7,271.5,-0.8,0.9,2485.277,13.28,773.0,0.878,121.2
2024-01-29T05:39:13,2420,42.8014,5.9826,0.852,0.018,2.646,155.0,152.0,152.0,11.8,1504.7,271.4,-0.8,0.9,2485.498,13.28,781.0,0.852,88.8
2024-01-29T05:42:13,2420,42.8014,5.9826,0.964,-0.223,3.017,155.0,152.0,152.0,11.8,1504.7,271.4,-0.8,0.9,2485.291,13.28,782.0,0.989,103.0
2024-01-29T05:45:13,2420,42.8014,5.9826,0.855,-0.222,3.1,155.0,152.0,152.0,11.8,1504.7,271.6,-0.8,0.9,2485.631,13.28,778.0,0.883,104.6
2024-01-29T05:48:13,2420,42.8014,5.9826,0.633,0.275,2.442,155.0,152.0,152.0,11.8,1504.7,271.4,-0.8,0.9,2485.779,13.28,767.0,0.69,66.5
2024-01-29T05:51:13,2420,42.8014,5.9826,0.353,-0.237,1.818,155.0,151.0,152.0,11.8,1504.7,271.5,-0.8,0.9,2485.687,13.28,792.0,0.425,123.9
2024-01-29T05:54:12,2420,42.8014,5.9826,0.849,0.286,3.108,155.0,152.0,152.0,11.8,1504.7,271.3,-0.8,0.9,2485.458,13.28,792.0,0.896,71.4
2024-01-29T05:57:13,2420,42.8014,5.9826,0.74,-0.448,2.744,155.0,151.0,152.0,11.8,1504.7,271.5,-0.8,0.9,2485.522,13.28,780.0,0.865,121.2
2024-01-29T06:06:13,2420,42.8014,5.9826,0.81,0.513,2.652,155.0,152.0,152.0,11.8,1504.7,271.4,-0.8,0.9,2485.532,13.29,790.0,0.959,57.7
2024-01-29T06:09:13,2420,42.8014,5.9826,1.021,0.041,3.339,155.0,151.0,152.0,11.8,1504.7,271.3,-0.8,0.9,2485.956,13.29,790.0,1.022,87.7
2024-01-29T06:12:13,2420,42.8014,5.9826,0.985,0.015,3.363,155.0,151.0,152.0,11.8,1504.7,271.4,-0.8,0.9,2485.35,13.29,777.0,0.985,89.1
2024-01-29T06:15:13,2420,42.8014,5.9826,1.23,0.0,3.138,155.0,152.0,152.0,11.8,1504.7,271.4,-0.8,0.9,2485.239,13.29,786.0,1.23,90.0
2024-01-29T06:18:13,2420,42.8014,5.9826,0.917,0.497,2.555,155.0,151.0,152.0,11.8,1504.7,271.5,-0.8,0.9,2485.472,13.29,799.0,1.043,61.5
2024-01-29T06:21:13,2420,42.8014,5.9826,0.82,0.252,3.064,155.0,152.0,152.0,11.8,1504.7,271.5,-0.8,0.9,2485.611,13.28,779.0,0.858,72.9
2024-01-29T06:24:13,2420,42.8014,5.9826,1.119,-0.003,3.188,155.0,151.0,152.0,11.8,1504.7,271.5,-0.8,0.9,2485.44,13.28,806.0,1.119,90.1
2024-01-29T06:27:13,2420,42.8014,5.9826,0.763,0.03,2.702,155.0,152.0,152.0,11.8,1504.7,271.3,-0.8,0.9,2485.542,13.28,796.0,0.764,87.8
2024-01-29T06:30:13,2420,42.8014,5.9826,1.085,0.018,3.236,155.0,152.0,152.0,11.8,1504.7,271.5,-0.8,0.9,2485.326,13.28,775.0,1.085,89.1
2024-01-29T06:33:13,2420,42.8014,5.9826,0.616,0.269,2.438,155.0,152.0,152.0,11.8,1504.7,271.3,-0.8,0.9,2485.32,13.28,785.0,0.672,66.4
2024-01-29T06:36:13,2420,42.8014,5.9826,0.62,0.018,1.954,155.0,151.0,152.0,11.7,1504.7,271.3,-0.8,0.9,2485.568,13.28,783.0,0.62,88.3
2024-01-29T06:39:13,2420,42.8014,5.9826,0.751,-0.192,3.191,155.0,152.0,152.0,11.7,1504.7,271.4,-0.8,0.9,2485.591,13.28,778.0,0.775,104.3
2024-01-29T06:42:13,2420,42.8014,5.9826,1.024,0.039,3.354,155.0,152.0,152.0,11.8,1504.7,271.4,-0.8,0.9,2485.402,13.28,773.0,1.025,87.8
2024-01-29T06:45:13,2420,42.8014,5.9826,1.152,0.006,3.184,155.0,151.0,152.0,11.8,1504.7,271.4,-0.8,0.9,2485.386,13.28,786.0,1.152,89.7
2024-01-29T06:48:13,2420,42.8014,5.9826,0.415,0.011,2.222,155.0,151.0,152.0,11.8,1504.7,271.5,-0.8,0.9,2485.462,13.28,780.0,0.415,88.5
2024-01-29T06:51:13,2420,42.8014,5.9826,0.917,0.27,3.005,155.0,151.0,152.0,11.8,1504.7,271.4,-0.9,0.9,2485.233,13.28,774.0,0.956,73.6
2024-01-29T06:54:13,2420,42.8014,5.9826,0.675,-0.482,2.809,155.0,151.0,152.0,11.8,1504.7,271.3,-0.8,0.9,2485.711,13.28,799.0,0.829,125.5
2024-01-29T06:57:13,2420,42.8014,5.9826,1.013,0.247,2.915,155.0,152.0,152.0,11.8,1504.7,271.5,-0.8,0.9,2485.46,13.28,791.0,1.043,76.3
2024-01-29T07:03:13,2420,42.8014,5.9826,0.562,0.254,2.479,155.0,152.0,152.0,11.7,1504.7,271.4,-0.8,0.9,2485.249,13.28,795.0,0.617,65.7
2024-01-29T07:06:13,2420,42.8014,5.9826,0.456,-0.459,2.145,155.0,152.0,152.0,11.8,1504.7,271.4,-0.8,0.9,2485.404,13.28,786.0,0.647,135.2
2024-01-29T07:09:13,2420,42.8014,5.9826,1.12,0.013,3.264,155.0,151.0,152.0,11.8,1504.7,271.4,-0.8,0.9,2485.324,13.28,782.0,1.12,89.3
2024-01-29T07:12:13,2420,42.8014,5.9826,0.782,-0.473,2.685,155.0,152.0,152.0,11.8,1504.7,271.3,-0.8,0.9,2485.297,13.28,791.0,0.914,121.2
2024-01-29T07:15:13,2420,42.8014,5.9826,0.76,0.541,2.721,156.0,152.0,153.0,11.7,1504.7,271.4,-0.8,0.9,2484.91,13.28,775.0,0.933,54.6
2024-01-29T07:18:13,2420,42.8014,5.9826,0.069,0.074,4.187,155.0,152.0,153.0,11.8,1504.7,271.4,-0.9,0.9,2485.247,13.28,778.0,0.101,43.0
2024-01-29T07:21:13,2420,42.8014,5.9826,0.148,0.052,4.049,155.0,152.0,153.0,11.8,1504.7,271.3,-0.8,0.9,2485.352,13.28,791.0,0.156,70.6
2024-01-29T07:24:13,2420,42.8014,5.9826,0.227,0.055,3.969,156.0,152.0,153.0,11.8,1504.7,271.3,-0.8,0.9,2485.514,13.28,766.0,0.233,76.4
2024-01-29T07:27:13,2420,42.8014,5.9826,0.156,0.057,4.018,156.0,152.0,153.0,11.8,1504.7,271.5,-0.8,0.9,2485.299,13.28,775.0,0.166,69.9
2024-01-29T07:30:13,2420,42.8014,5.9826,0.157,0.052,4.009,155.0,152.0,153.0,11.7,1504.7,271.2,-0.8,0.9,2484.946,13.28,783.0,0.165,71.7
2024-01-29T07:33:13,2420,42.8014,5.9826,0.204,0.055,3.928,156.0,152.0,153.0,11.8,1504.7,271.5,-0.8,0.9,2485.424,13.28,783.0,0.211,74.9
2024-01-29T07:36:13,2420,42.8014,5.9826,0.289,0.048,3.892,155.0,152.0,153.0,11.8,1504.7,271.4,-0.8,0.9,2485.209,13.28,763.0,0.293,80.6
2024-01-29T07:39:13,2420,42.8014,5.9826,0.234,0.067,3.995,155.0,152.0,153.0,11.8,1504.7,271.5,-0.8,0.9,2485.693,13.28,790.0,0.243,74.0
2024-01-29T07:42:13,2420,42.8014,5.9826,0.221,0.047,3.97,156.0,152.0,153.0,11.8,1504.7,271.5,-0.8,0.9,2485.097,13.28,781.0,0.225,78.0
2024-01-29T07:45:13,2420,42.8014,5.9826,0.174,0.063,4.043,156.0,152.0,153.0,11.8,1504.7,271.4,-0.8,0.9,2485.478,13.28,772.0,0.185,70.1
2024-01-29T07:48:13,2420,42.8014,5.9826,0.186,0.067,4.041,156.0,152.0,153.0,11.8,1504.7,271.5,-0.8,0.9,2485.37,13.28,777.0,0.197,70.2
2024-01-29T07:51:13,2420,42.8014,5.9826,0.203,0.051,3.945,156.0,152.0,153.0,11.8,1504.7,271.3,-0.9,0.9,2485.526,13.28,777.0,0.209,75.9
2024-01-29T07:54:13,2420,42.8014,5.9826,0.174,0.065,3.981,155.0,152.0,153.0,11.8,1504.7,271.4,-0.8,0.9,2485.591,13.28,786.0,0.185,69.5
2024-01-29T07:57:13,2420,42.8014,5.9826,0.195,0.058,3.954,156.0,152.0,153.0,11.8,1504.7,271.5,-0.8,0.9,2485.55,13.28,775.0,0.203,73.4
2024-01-29T08:03:13,2420,42.8014,5.9826,0.233,0.054,3.881,156.0,152.0,153.0,11.8,1504.7,271.4,-0.8,0.9,2485.47,13.28,776.0,0.239,77.0
2024-01-29T08:06:13,2420,42.8014,5.9826,0.121,0.057,4.04,156.0,152.0,153.0,11.8,1504.7,271.3,-0.8,0.9,2485.406,13.28,781.0,0.133,64.8
2024-01-29T08:09:13,2420,42.8014,5.9826,0.151,0.065,4.088,156.0,152.0,153.0,11.8,1504.7,271.5,-0.8,0.8,2485.097,13.28,776.0,0.164,66.7
2024-01-29T08:12:13,2420,42.8014,5.9826,0.18,0.064,4.102,156.0,152.0,153.0,11.7,1504.7,271.4,-0.8,0.9,2485.486,13.28,781.0,0.191,70.4
2024-01-29T08:15:13,2420,42.8014,5.9826,0.211,0.049,3.994,155.0,152.0,153.0,11.8,1504.7,271.4,-0.8,0.9,2485.516,13.28,801.0,0.216,76.9
2024-01-29T08:18:13,2420,42.8014,5.9826,0.223,0.054,3.935,156.0,152.0,153.0,11.8,1504.7,271.4,-0.8,0.9,2485.815,13.28,778.0,0.229,76.4
2024-01-29T08:21:13,2420,42.8014,5.9826,0.22,0.069,4.054,156.0,152.0,153.0,11.8,1504.7,271.5,-0.8,0.9,2485.647,13.28,780.0,0.23,72.6
2024-01-29T08:24:13,2420,42.8014,5.9826,0.194,0.071,4.014,156.0,152.0,153.0,11.8,1504.7,271.5,-0.8,0.9,2485.637,13.28,773.0,0.206,69.9
2024-01-29T08:27:13,2420,42.8014,5.9826,0.091,0.064,4.16,156.0,152.0,153.0,11.7,1504.7,271.5,-0.8,0.9,2485.452,13.28,771.0,0.111,54.9
2024-01-29T08:30:13,2420,42.8014,5.9826,0.176,0.068,4.027,156.0,152.0,153.0,11.8,1504.7,271.4,-0.8,0.9,2485.41,13.28,782.0,0.188,68.9
2024-01-29T08:33:13,2420,42.8014,5.9826,0.167,0.06,4.089,156.0,152.0,153.0,11.7,1504.7,271.5,-0.8,0.9,2485.285,13.28,794.0,0.177,70.2
2024-01-29T08:36:13,2420,42.8014,5.9826,0.155,0.054,4.148,156.0,152.0,153.0,11.8,1504.7,271.3,-0.9,0.9,2485.32,13.28,779.0,0.164,70.8
2024-01-29T08:39:13,2420,42.8014,5.9826,0.105,0.062,4.194,155.0,152.0,153.0,11.8,1504.7,271.4,-0.8,0.9,2485.508,13.28,771.0,0.121,59.4
2024-01-29T08:42:13,2420,42.8014,5.9826,0.151,0.052,4.08,155.0,152.0,153.0,11.8,1504.7,271.4,-0.8,0.9,2485.183,13.28,774.0,0.159,71.0
2024-01-29T08:45:13,2420,42.8014,5.9826,0.178,0.069,4.025,156.0,152.0,153.0,11.8,1504.7,271.3,-0.9,0.9,2485.4,13.28,788.0,0.19,68.8
2024-01-29T08:48:13,2420,42.8014,5.9826,0.157,0.066,4.068,156.0,152.0,153.0,11.8,1504.7,271.4,-0.8,0.9,2485.289,13.28,777.0,0.17,67.2
2024-01-29T08:51:13,2420,42.8014,5.9826,0.192,0.068,4.04,156.0,152.0,153.0,11.8,1504.7,271.4,-0.8,0.9,2485.615,13.28,783.0,0.203,70.5
2024-01-29T08:54:13,2420,42.8014,5.9826,0.205,0.051,4.027,156.0,152.0,153.0,11.8,1504.7,271.4,-0.8,0.9,2485.801,13.28,772.0,0.211,76.0
2024-01-29T08:57:13,2420,42.8014,5.9826,0.127,0.058,4.102,156.0,152.0,153.0,11.8,1504.7,271.5,-0.8,0.9,2485.434,13.28,782.0,0.139,65.5
2024-01-29T09:03:13,2420,42.8014,5.9826,0.094,0.062,4.163,155.0,152.0,153.0,11.8,1504.7,271.3,-0.9,0.9,2485.404,13.28,785.0,0.112,56.6
2024-01-29T09:06:13,2420,42.8014,5.9826,0.269,0.062,3.963,156.0,152.0,153.0,11.8,1504.7,271.3,-0.8,0.9,2485.57,13.28,787.0,0.276,77.0
2024-01-29T09:09:13,2420,42.8014,5.9826,0.144,0.065,4.081,156.0,152.0,153.0,11.7,1504.7,271.3,-0.9,0.9,2485.922,13.28,775.0,0.157,65.7